Time,TemperatureF,DewpointF,PressureIn,WindDirection,WindDirectionDegrees,WindSpeedMPH,WindSpeedGustMPH,Humidity,HourlyPrecipIn,Conditions,Clouds,dailyrainin,SoftwareType,DateUTC
2013-07-01 00:01:00,77.8,57.1,29.77,SSE,158,0.9,4.3,49,0.00,,,0.00,WUHU216HW,2013-07-01 07:01:00,
2013-07-01 00:06:00,77.6,56.4,29.77,SW,225,1.8,4.3,48,0.00,,,0.00,WUHU216HW,2013-07-01 07:06:00,
2013-07-01 00:11:00,77.4,56.2,29.77,SW,225,0.7,1.8,48,0.00,,,0.00,WUHU216HW,2013-07-01 07:11:00,
2013-07-01 00:16:00,77.4,56.2,29.77,SSE,158,0.9,1.1,48,0.00,,,0.00,WUHU216HW,2013-07-01 07:16:00,
2013-07-01 00:21:00,77.2,56.6,29.77,South,180,0.9,1.1,49,0.00,,,0.00,WUHU216HW,2013-07-01 07:21:00,
2013-07-01 00:27:00,76.9,56.3,29.77,SSW,203,1.1,2.2,49,0.00,,,0.00,WUHU216HW,2013-07-01 07:27:00,
2013-07-01 00:32:00,76.7,56.2,29.77,SSW,203,1.1,2.2,49,0.00,,,0.00,WUHU216HW,2013-07-01 07:32:00,
2013-07-01 00:37:00,76.7,56.7,29.77,WSW,248,0.7,3.4,50,0.00,,,0.00,WUHU216HW,2013-07-01 07:37:00,
2013-07-01 00:42:00,76.5,56.0,29.77,SSW,203,1.1,3.4,49,0.00,,,0.00,WUHU216HW,2013-07-01 07:42:00,
2013-07-01 00:47:00,76.3,56.4,29.77,SSW,203,0.7,2.0,50,0.00,,,0.00,WUHU216HW,2013-07-01 07:47:00,
2013-07-01 00:52:00,76.1,56.3,29.77,South,180,1.8,2.0,50,0.00,,,0.00,WUHU216HW,2013-07-01 07:52:00,
2013-07-01 00:57:00,76.1,56.3,29.77,SSW,203,1.1,1.8,50,0.00,,,0.00,WUHU216HW,2013-07-01 07:57:00,
2013-07-01 01:02:00,76.0,56.1,29.78,South,180,0.7,1.8,50,0.00,,,0.00,WUHU216HW,2013-07-01 08:02:00,
2013-07-01 01:07:00,76.0,56.6,29.78,SSE,158,1.8,1.8,51,0.00,,,0.00,WUHU216HW,2013-07-01 08:07:00,
2013-07-01 01:12:00,75.6,56.3,29.77,SSE,158,2.2,2.5,51,0.00,,,0.00,WUHU216HW,2013-07-01 08:12:00,
2013-07-01 01:17:00,75.6,56.3,29.78,SSW,203,1.1,2.5,51,0.00,,,0.00,WUHU216HW,2013-07-01 08:17:00,
2013-07-01 01:22:00,75.4,56.1,29.78,South,180,1.6,2.0,51,0.00,,,0.00,WUHU216HW,2013-07-01 08:22:00,
2013-07-01 01:27:00,75.2,56.0,29.78,SW,225,1.1,1.6,51,0.00,,,0.00,WUHU216HW,2013-07-01 08:27:00,
2013-07-01 01:32:00,75.1,55.8,29.78,South,180,1.1,1.6,51,0.00,,,0.00,WUHU216HW,2013-07-01 08:32:00,
2013-07-01 01:38:00,75.1,56.3,29.78,SW,225,1.6,1.6,52,0.00,,,0.00,WUHU216HW,2013-07-01 08:38:00,
2013-07-01 01:43:00,74.9,56.1,29.78,SSE,158,1.1,1.8,52,0.00,,,0.00,WUHU216HW,2013-07-01 08:43:00,
2013-07-01 01:48:00,74.7,55.9,29.78,SSW,203,1.1,1.8,52,0.00,,,0.00,WUHU216HW,2013-07-01 08:48:00,
2013-07-01 01:53:00,74.5,55.7,29.78,SSE,158,0.4,1.8,52,0.00,,,0.00,WUHU216HW,2013-07-01 08:53:00,
2013-07-01 01:58:00,74.3,55.5,29.78,South,180,1.1,1.1,52,0.00,,,0.00,WUHU216HW,2013-07-01 08:58:00,
2013-07-01 02:03:00,74.2,55.9,29.78,SSW,203,2.0,2.0,53,0.00,,,0.00,WUHU216HW,2013-07-01 09:03:00,
2013-07-01 02:08:00,74.2,55.9,29.78,SE,135,1.3,2.9,53,0.00,,,0.00,WUHU216HW,2013-07-01 09:08:00,
2013-07-01 02:13:00,73.8,55.5,29.78,WSW,248,1.8,2.9,53,0.00,,,0.00,WUHU216HW,2013-07-01 09:13:00,
2013-07-01 02:18:00,73.8,55.5,29.77,SW,225,1.6,2.0,53,0.00,,,0.00,WUHU216HW,2013-07-01 09:18:00,
2013-07-01 02:23:00,73.6,55.8,29.77,South,180,1.8,2.0,54,0.00,,,0.00,WUHU216HW,2013-07-01 09:23:00,
2013-07-01 02:28:00,73.4,55.2,29.78,SSE,158,1.6,2.0,53,0.00,,,0.00,WUHU216HW,2013-07-01 09:28:00,
2013-07-01 02:33:00,73.4,55.2,29.78,SW,225,2.0,2.0,53,0.00,,,0.00,WUHU216HW,2013-07-01 09:33:00,
2013-07-01 02:38:00,73.3,55.5,29.78,SSW,203,1.3,2.0,54,0.00,,,0.00,WUHU216HW,2013-07-01 09:38:00,
2013-07-01 02:43:00,73.1,55.4,29.78,South,180,1.6,1.6,54,0.00,,,0.00,WUHU216HW,2013-07-01 09:43:00,
2013-07-01 02:49:00,72.9,55.7,29.78,SSE,158,0.9,1.6,55,0.00,,,0.00,WUHU216HW,2013-07-01 09:49:00,
2013-07-01 02:54:00,72.7,55.0,29.79,SSW,203,0.4,0.9,54,0.00,,,0.00,WUHU216HW,2013-07-01 09:54:00,
2013-07-01 02:59:00,72.7,55.5,29.79,SSE,158,1.3,2.7,55,0.00,,,0.00,WUHU216HW,2013-07-01 09:59:00,
2013-07-01 03:04:00,72.5,55.4,29.79,SSW,203,0.7,2.7,55,0.00,,,0.00,WUHU216HW,2013-07-01 10:04:00,
2013-07-01 03:09:00,72.4,55.2,29.79,SW,225,2.5,2.5,55,0.00,,,0.00,WUHU216HW,2013-07-01 10:09:00,
2013-07-01 03:14:00,72.2,55.5,29.79,South,180,1.1,2.5,56,0.00,,,0.00,WUHU216HW,2013-07-01 10:14:00,
2013-07-01 03:19:00,72.2,55.5,29.80,SSE,158,1.1,1.8,56,0.00,,,0.00,WUHU216HW,2013-07-01 10:19:00,
2013-07-01 03:24:00,72.0,55.4,29.80,SW,225,1.1,2.0,56,0.00,,,0.00,WUHU216HW,2013-07-01 10:24:00,
2013-07-01 03:29:00,72.0,55.4,29.80,SW,225,1.8,2.0,56,0.00,,,0.00,WUHU216HW,2013-07-01 10:29:00,
2013-07-01 03:34:00,72.0,55.4,29.80,SSW,203,0.9,1.8,56,0.00,,,0.00,WUHU216HW,2013-07-01 10:34:00,
2013-07-01 03:39:00,71.8,55.2,29.80,South,180,1.6,1.6,56,0.00,,,0.00,WUHU216HW,2013-07-01 10:39:00,
2013-07-01 03:44:00,71.6,55.1,29.80,SSW,203,1.1,1.6,56,0.00,,,0.00,WUHU216HW,2013-07-01 10:44:00,
2013-07-01 03:49:00,71.6,55.5,29.80,SW,225,1.3,1.3,57,0.00,,,0.00,WUHU216HW,2013-07-01 10:49:00,
2013-07-01 03:54:00,71.5,55.4,29.80,SSW,203,0.2,1.3,57,0.00,,,0.00,WUHU216HW,2013-07-01 10:54:00,
2013-07-01 03:59:00,71.3,55.3,29.80,SSE,158,0.4,0.9,57,0.00,,,0.00,WUHU216HW,2013-07-01 10:59:00,
2013-07-01 04:04:00,71.3,55.3,29.80,SSW,203,0.4,1.3,57,0.00,,,0.00,WUHU216HW,2013-07-01 11:04:00,
2013-07-01 04:09:00,71.1,55.5,29.80,SSE,158,1.1,1.8,58,0.00,,,0.00,WUHU216HW,2013-07-01 11:09:00,
2013-07-01 04:14:00,71.1,55.5,29.80,SSE,158,1.1,1.8,58,0.00,,,0.00,WUHU216HW,2013-07-01 11:14:00,
2013-07-01 04:20:00,70.9,55.9,29.80,SE,135,1.1,2.5,59,0.00,,,0.00,WUHU216HW,2013-07-01 11:20:00,
2013-07-01 04:25:00,70.9,55.5,29.80,SW,225,2.2,2.5,58,0.00,,,0.00,WUHU216HW,2013-07-01 11:25:00,
2013-07-01 04:30:00,70.7,55.7,29.80,SW,225,2.2,2.5,59,0.00,,,0.00,WUHU216HW,2013-07-01 11:30:00,
2013-07-01 04:35:00,70.6,55.6,29.80,SW,225,1.8,2.5,59,0.00,,,0.00,WUHU216HW,2013-07-01 11:35:00,
2013-07-01 04:40:00,70.6,55.6,29.80,SSE,158,0.0,1.8,59,0.00,,,0.00,WUHU216HW,2013-07-01 11:40:00,
2013-07-01 04:45:00,70.4,54.9,29.80,SW,225,0.2,1.6,58,0.00,,,0.00,WUHU216HW,2013-07-01 11:45:00,
2013-07-01 04:50:00,70.2,55.3,29.80,SSW,203,0.0,0.2,59,0.00,,,0.00,WUHU216HW,2013-07-01 11:50:00,
2013-07-01 04:55:00,70.0,55.1,29.80,SSW,203,0.4,0.7,59,0.00,,,0.00,WUHU216HW,2013-07-01 11:55:00,
2013-07-01 05:00:00,69.8,54.9,29.80,South,180,0.4,0.9,59,0.00,,,0.00,WUHU216HW,2013-07-01 12:00:00,
2013-07-01 05:05:00,69.7,55.3,29.80,SE,135,0.2,1.1,60,0.00,,,0.00,WUHU216HW,2013-07-01 12:05:00,
2013-07-01 05:10:00,69.7,55.3,29.81,SSE,158,0.4,1.1,60,0.00,,,0.00,WUHU216HW,2013-07-01 12:10:00,
2013-07-01 05:15:00,69.7,55.3,29.81,SW,225,0.7,1.8,60,0.00,,,0.00,WUHU216HW,2013-07-01 12:15:00,
2013-07-01 05:20:00,69.5,55.1,29.81,SW,225,0.7,1.8,60,0.00,,,0.00,WUHU216HW,2013-07-01 12:20:00,
2013-07-01 05:26:00,69.5,55.5,29.81,South,180,0.7,1.8,61,0.00,,,0.00,WUHU216HW,2013-07-01 12:26:00,
2013-07-01 05:31:00,69.5,55.5,29.81,SW,225,0.2,1.1,61,0.00,,,0.00,WUHU216HW,2013-07-01 12:31:00,
2013-07-01 05:36:00,69.3,55.4,29.82,SSW,203,0.0,1.1,61,0.00,,,0.00,WUHU216HW,2013-07-01 12:36:00,
2013-07-01 05:41:00,69.1,55.2,29.82,SSW,203,0.0,0.0,61,0.00,,,0.00,WUHU216HW,2013-07-01 12:41:00,
2013-07-01 05:46:00,68.9,55.0,29.82,South,180,0.9,0.9,61,0.00,,,0.00,WUHU216HW,2013-07-01 12:46:00,
2013-07-01 05:51:00,68.8,55.2,29.82,SSW,203,0.4,1.8,62,0.00,,,0.00,WUHU216HW,2013-07-01 12:51:00,
2013-07-01 05:56:00,68.8,55.2,29.82,South,180,1.6,1.8,62,0.00,,,0.00,WUHU216HW,2013-07-01 12:56:00,
2013-07-01 06:01:00,68.8,55.2,29.82,SSE,158,0.2,1.6,62,0.00,,,0.00,WUHU216HW,2013-07-01 13:01:00,
2013-07-01 06:06:00,68.9,55.4,29.82,SSW,203,0.4,1.3,62,0.00,,,0.00,WUHU216HW,2013-07-01 13:06:00,
2013-07-01 06:11:00,68.9,55.8,29.82,SSW,203,0.0,1.1,63,0.00,,,0.00,WUHU216HW,2013-07-01 13:11:00,
2013-07-01 06:16:00,68.9,56.3,29.82,SSW,203,0.0,0.0,64,0.00,,,0.00,WUHU216HW,2013-07-01 13:16:00,
2013-07-01 06:21:00,68.8,56.1,29.82,SSW,203,0.0,0.0,64,0.00,,,0.00,WUHU216HW,2013-07-01 13:21:00,
2013-07-01 06:26:00,68.8,56.1,29.82,SSE,158,0.7,1.8,64,0.00,,,0.00,WUHU216HW,2013-07-01 13:26:00,
2013-07-01 06:31:00,68.8,56.1,29.82,SW,225,1.1,1.8,64,0.00,,,0.00,WUHU216HW,2013-07-01 13:31:00,
2013-07-01 06:36:00,68.9,55.8,29.82,SSW,203,0.4,1.3,63,0.00,,,0.00,WUHU216HW,2013-07-01 13:36:00,
2013-07-01 06:41:00,68.9,55.8,29.82,SSW,203,1.6,1.6,63,0.00,,,0.00,WUHU216HW,2013-07-01 13:41:00,
2013-07-01 06:47:00,69.1,56.0,29.82,South,180,0.4,1.6,63,0.00,,,0.00,WUHU216HW,2013-07-01 13:47:00,
2013-07-01 06:52:00,69.3,56.2,29.82,SSW,203,1.3,1.6,63,0.00,,,0.00,WUHU216HW,2013-07-01 13:52:00,
2013-07-01 06:57:00,69.7,56.5,29.82,SSW,203,0.4,3.4,63,0.00,,,0.00,WUHU216HW,2013-07-01 13:57:00,
2013-07-01 07:02:00,70.6,57.3,29.82,SW,225,0.0,0.9,63,0.00,,,0.00,WUHU216HW,2013-07-01 14:02:00,
2013-07-01 07:07:00,71.8,58.5,29.82,South,180,0.0,0.9,63,0.00,,,0.00,WUHU216HW,2013-07-01 14:07:00,
2013-07-01 07:12:00,72.7,59.0,29.83,SSE,158,0.0,0.9,62,0.00,,,0.00,WUHU216HW,2013-07-01 14:12:00,
2013-07-01 07:17:00,73.8,59.0,29.83,SSW,203,0.2,1.8,60,0.00,,,0.00,WUHU216HW,2013-07-01 14:17:00,
2013-07-01 07:22:00,74.3,59.0,29.83,South,180,0.9,1.8,59,0.00,,,0.00,WUHU216HW,2013-07-01 14:22:00,
2013-07-01 07:27:00,74.5,58.8,29.83,SW,225,0.0,1.1,58,0.00,,,0.00,WUHU216HW,2013-07-01 14:27:00,
2013-07-01 07:32:00,75.2,59.5,29.83,SW,225,0.4,1.1,58,0.00,,,0.00,WUHU216HW,2013-07-01 14:32:00,
2013-07-01 07:37:00,76.3,59.9,29.83,SSW,203,0.4,0.4,57,0.00,,,0.00,WUHU216HW,2013-07-01 14:37:00,
2013-07-01 07:42:00,76.9,59.4,29.83,SW,225,0.0,0.7,55,0.00,,,0.00,WUHU216HW,2013-07-01 14:42:00,
2013-07-01 07:47:00,76.5,59.1,29.84,SW,225,0.0,0.7,55,0.00,,,0.00,WUHU216HW,2013-07-01 14:47:00,
2013-07-01 07:52:00,76.3,59.0,29.84,SW,225,0.0,0.0,55,0.00,,,0.00,WUHU216HW,2013-07-01 14:52:00,
2013-07-01 07:57:00,76.3,59.0,29.84,SW,225,0.0,0.0,55,0.00,,,0.00,WUHU216HW,2013-07-01 14:57:00,
2013-07-01 08:02:00,76.3,59.0,29.84,SSE,158,0.0,1.1,55,0.00,,,0.00,WUHU216HW,2013-07-01 15:02:00,
2013-07-01 08:08:00,76.1,58.8,29.84,SE,135,0.0,1.1,55,0.00,,,0.00,WUHU216HW,2013-07-01 15:08:00,
2013-07-01 08:13:00,76.1,58.8,29.84,SSE,158,0.2,1.1,55,0.00,,,0.00,WUHU216HW,2013-07-01 15:13:00,
2013-07-01 08:18:00,76.5,59.1,29.84,WSW,248,0.9,0.9,55,0.00,,,0.00,WUHU216HW,2013-07-01 15:18:00,
2013-07-01 08:22:00,77.0,59.0,29.84,South,180,0.4,0.9,54,0.00,,,0.00,WUHU216HW,2013-07-01 15:22:00,
2013-07-01 08:28:00,78.5,60.4,29.84,South,180,0.0,0.9,54,0.00,,,0.00,WUHU216HW,2013-07-01 15:28:00,
2013-07-01 08:33:00,81.7,62.3,29.84,South,180,0.0,0.4,52,0.00,,,0.00,WUHU216HW,2013-07-01 15:33:00,
2013-07-01 08:38:00,84.2,62.5,29.84,NNE,23,0.0,0.4,48,0.00,,,0.00,WUHU216HW,2013-07-01 15:38:00,
2013-07-01 08:43:00,86.6,63.9,29.84,NNE,23,0.4,0.4,47,0.00,,,0.00,WUHU216HW,2013-07-01 15:43:00,
2013-07-01 08:48:00,88.9,64.1,29.85,North,0,0.2,0.4,44,0.00,,,0.00,WUHU216HW,2013-07-01 15:48:00,
2013-07-01 08:53:00,90.0,63.7,29.85,SW,225,0.9,0.9,42,0.00,,,0.00,WUHU216HW,2013-07-01 15:53:00,
2013-07-01 08:58:00,90.9,63.9,29.85,NE,45,1.1,1.1,41,0.00,,,0.00,WUHU216HW,2013-07-01 15:58:00,
2013-07-01 09:03:00,91.8,62.5,29.85,NE,45,0.7,1.8,38,0.00,,,0.00,WUHU216HW,2013-07-01 16:03:00,
2013-07-01 09:08:00,92.2,63.5,29.85,North,0,0.2,2.5,39,0.00,,,0.00,WUHU216HW,2013-07-01 16:08:00,
2013-07-01 09:13:00,92.3,63.7,29.85,NNE,23,0.9,2.5,39,0.00,,,0.00,WUHU216HW,2013-07-01 16:13:00,
2013-07-01 09:18:00,92.3,63.7,29.85,WSW,248,0.4,1.1,39,0.00,,,0.00,WUHU216HW,2013-07-01 16:18:00,
2013-07-01 09:23:00,92.5,63.9,29.85,NNW,338,0.4,2.0,39,0.00,,,0.00,WUHU216HW,2013-07-01 16:23:00,
2013-07-01 09:29:00,92.5,63.9,29.85,NW,315,0.2,2.0,39,0.00,,,0.00,WUHU216HW,2013-07-01 16:29:00,
2013-07-01 09:34:00,93.6,64.1,29.85,ENE,68,1.6,1.6,38,0.00,,,0.00,WUHU216HW,2013-07-01 16:34:00,
2013-07-01 09:39:00,94.0,64.4,29.85,East,90,0.0,1.8,38,0.00,,,0.00,WUHU216HW,2013-07-01 16:39:00,
2013-07-01 09:44:00,95.0,65.3,29.85,NE,45,0.2,1.3,38,0.00,,,0.00,WUHU216HW,2013-07-01 16:44:00,
2013-07-01 09:49:00,95.4,64.0,29.85,NW,315,0.0,1.3,36,0.00,,,0.00,WUHU216HW,2013-07-01 16:49:00,
2013-07-01 09:54:00,95.8,63.6,29.85,NNE,23,1.1,1.1,35,0.00,,,0.00,WUHU216HW,2013-07-01 16:54:00,
2013-07-01 09:59:00,95.0,62.9,29.85,ESE,113,0.2,1.1,35,0.00,,,0.00,WUHU216HW,2013-07-01 16:59:00,
2013-07-01 10:04:00,95.2,63.9,29.85,SSE,158,0.4,1.1,36,0.00,,,0.00,WUHU216HW,2013-07-01 17:04:00,
2013-07-01 10:09:00,95.0,63.7,29.85,SSE,158,1.6,1.6,36,0.00,,,0.00,WUHU216HW,2013-07-01 17:09:00,
2013-07-01 10:14:00,94.3,63.1,29.84,SSE,158,1.8,1.8,36,0.00,,,0.00,WUHU216HW,2013-07-01 17:14:00,
2013-07-01 10:19:00,93.4,63.1,29.84,SSE,158,0.4,1.8,37,0.00,,,0.00,WUHU216HW,2013-07-01 17:19:00,
2013-07-01 10:24:00,92.5,63.1,29.85,SW,225,1.8,1.8,38,0.00,,,0.00,WUHU216HW,2013-07-01 17:24:00,
2013-07-01 10:29:00,91.6,60.8,29.84,NNE,23,0.9,1.8,36,0.00,,,0.00,WUHU216HW,2013-07-01 17:29:00,
2013-07-01 10:34:00,91.3,62.0,29.84,East,90,0.4,1.1,38,0.00,,,0.00,WUHU216HW,2013-07-01 17:34:00,
2013-07-01 10:39:00,91.3,62.7,29.85,NNW,338,1.1,1.6,39,0.00,,,0.00,WUHU216HW,2013-07-01 17:39:00,
2013-07-01 10:44:00,91.3,62.7,29.85,ESE,113,0.7,3.1,39,0.00,,,0.00,WUHU216HW,2013-07-01 17:44:00,
2013-07-01 10:50:00,91.3,62.7,29.85,ENE,68,1.3,3.1,39,0.00,,,0.00,WUHU216HW,2013-07-01 17:50:00,
2013-07-01 10:55:00,91.8,63.3,29.85,NE,45,1.6,2.2,39,0.00,,,0.00,WUHU216HW,2013-07-01 17:55:00,
2013-07-01 11:00:00,92.2,63.5,29.85,NE,45,1.1,2.2,39,0.00,,,0.00,WUHU216HW,2013-07-01 18:00:00,
2013-07-01 11:05:00,92.3,63.7,29.85,WNW,293,0.0,1.3,39,0.00,,,0.00,WUHU216HW,2013-07-01 18:05:00,
2013-07-01 11:10:00,92.5,63.9,29.84,NE,45,2.9,2.9,39,0.00,,,0.00,WUHU216HW,2013-07-01 18:10:00,
2013-07-01 11:15:00,92.7,64.1,29.84,NW,315,1.6,2.9,39,0.00,,,0.00,WUHU216HW,2013-07-01 18:15:00,
2013-07-01 11:20:00,92.9,64.2,29.84,WNW,293,0.7,2.2,39,0.00,,,0.00,WUHU216HW,2013-07-01 18:20:00,
2013-07-01 11:25:00,93.1,63.5,29.84,WNW,293,1.8,2.2,38,0.00,,,0.00,WUHU216HW,2013-07-01 18:25:00,
2013-07-01 11:30:00,93.2,64.5,29.84,NW,315,1.1,2.0,39,0.00,,,0.00,WUHU216HW,2013-07-01 18:30:00,
2013-07-01 11:35:00,93.8,64.2,29.84,WNW,293,0.9,1.1,38,0.00,,,0.00,WUHU216HW,2013-07-01 18:35:00,
2013-07-01 11:40:00,94.1,64.5,29.84,NNW,338,1.1,2.7,38,0.00,,,0.00,WUHU216HW,2013-07-01 18:40:00,
2013-07-01 11:45:00,94.1,64.5,29.84,WNW,293,1.1,2.7,38,0.00,,,0.00,WUHU216HW,2013-07-01 18:45:00,
2013-07-01 11:51:00,94.3,64.7,29.84,NW,315,2.5,2.5,38,0.00,,,0.00,WUHU216HW,2013-07-01 18:51:00,
2013-07-01 11:56:00,94.3,64.7,29.84,NW,315,1.6,2.5,38,0.00,,,0.00,WUHU216HW,2013-07-01 18:56:00,
2013-07-01 12:01:00,94.7,65.8,29.85,NW,315,0.9,2.7,39,0.00,,,0.00,WUHU216HW,2013-07-01 19:01:00,
2013-07-01 12:06:00,95.0,66.2,29.85,NNW,338,0.4,2.9,39,0.00,,,0.00,WUHU216HW,2013-07-01 19:06:00,
2013-07-01 12:11:00,95.2,66.3,29.85,NE,45,2.7,2.9,39,0.00,,,0.00,WUHU216HW,2013-07-01 19:11:00,
2013-07-01 12:16:00,95.6,64.2,29.84,NW,315,3.1,3.1,36,0.00,,,0.00,WUHU216HW,2013-07-01 19:16:00,
2013-07-01 12:21:00,95.4,64.8,29.84,NW,315,1.8,3.1,37,0.00,,,0.00,WUHU216HW,2013-07-01 19:21:00,
2013-07-01 12:26:00,95.4,63.2,29.84,ENE,68,2.7,2.9,35,0.00,,,0.00,WUHU216HW,2013-07-01 19:26:00,
2013-07-01 12:31:00,95.9,63.7,29.84,North,0,1.6,3.4,35,0.00,,,0.00,WUHU216HW,2013-07-01 19:31:00,
2013-07-01 12:36:00,96.1,63.0,29.84,WNW,293,1.6,3.4,34,0.00,,,0.00,WUHU216HW,2013-07-01 19:36:00,
2013-07-01 12:41:00,96.3,64.0,29.84,NW,315,2.5,3.6,35,0.00,,,0.00,WUHU216HW,2013-07-01 19:41:00,
2013-07-01 12:46:00,96.5,64.2,29.84,NNW,338,0.9,3.6,35,0.00,,,0.00,WUHU216HW,2013-07-01 19:46:00,
2013-07-01 12:51:00,96.8,64.4,29.84,West,270,2.7,3.1,35,0.00,,,0.00,WUHU216HW,2013-07-01 19:51:00,
2013-07-01 12:56:00,97.0,63.8,29.84,NW,315,1.8,3.8,34,0.00,,,0.00,WUHU216HW,2013-07-01 19:56:00,
2013-07-01 13:01:00,97.2,63.9,29.83,NW,315,3.4,3.8,34,0.00,,,0.00,WUHU216HW,2013-07-01 20:01:00,
2013-07-01 13:06:00,97.2,63.9,29.83,NW,315,2.9,3.8,34,0.00,,,0.00,WUHU216HW,2013-07-01 20:06:00,
2013-07-01 13:11:00,97.2,63.9,29.84,NNW,338,1.1,3.4,34,0.00,,,0.00,WUHU216HW,2013-07-01 20:11:00,
2013-07-01 13:16:00,97.6,65.1,29.84,WNW,293,2.7,3.6,35,0.00,,,0.00,WUHU216HW,2013-07-01 20:16:00,
2013-07-01 13:21:00,97.6,63.5,29.84,NW,315,2.0,3.6,33,0.00,,,0.00,WUHU216HW,2013-07-01 20:21:00,
2013-07-01 13:27:00,97.7,64.5,29.83,NW,315,1.8,2.9,34,0.00,,,0.00,WUHU216HW,2013-07-01 20:27:00,
2013-07-01 13:32:00,97.9,64.6,29.83,NW,315,1.6,3.6,34,0.00,,,0.00,WUHU216HW,2013-07-01 20:32:00,
2013-07-01 13:37:00,98.3,65.7,29.83,WSW,248,2.5,3.6,35,0.00,,,0.00,WUHU216HW,2013-07-01 20:37:00,
2013-07-01 13:42:00,98.3,65.7,29.83,North,0,1.3,2.5,35,0.00,,,0.00,WUHU216HW,2013-07-01 20:42:00,
2013-07-01 13:47:00,98.6,66.1,29.83,North,0,0.7,1.8,35,0.00,,,0.00,WUHU216HW,2013-07-01 20:47:00,
2013-07-01 13:52:00,98.8,66.3,29.83,ENE,68,1.3,1.8,35,0.00,,,0.00,WUHU216HW,2013-07-01 20:52:00,
2013-07-01 13:57:00,99.4,66.7,29.83,NNW,338,0.4,2.5,35,0.00,,,0.00,WUHU216HW,2013-07-01 20:57:00,
2013-07-01 14:02:00,99.7,67.9,29.83,North,0,1.1,2.5,36,0.00,,,0.00,WUHU216HW,2013-07-01 21:02:00,
2013-07-01 14:07:00,100.1,68.2,29.83,NW,315,1.6,1.6,36,0.00,,,0.00,WUHU216HW,2013-07-01 21:07:00,
2013-07-01 14:12:00,100.1,68.2,29.82,WNW,293,0.4,1.8,36,0.00,,,0.00,WUHU216HW,2013-07-01 21:12:00,
2013-07-01 14:17:00,100.3,67.5,29.83,ENE,68,1.1,1.8,35,0.00,,,0.00,WUHU216HW,2013-07-01 21:17:00,
2013-07-01 14:22:00,100.4,67.7,29.82,NNW,338,1.1,2.2,35,0.00,,,0.00,WUHU216HW,2013-07-01 21:22:00,
2013-07-01 14:27:00,100.4,67.7,29.82,East,90,0.9,2.2,35,0.00,,,0.00,WUHU216HW,2013-07-01 21:27:00,
2013-07-01 14:32:00,100.4,67.7,29.82,WNW,293,1.8,2.2,35,0.00,,,0.00,WUHU216HW,2013-07-01 21:32:00,
2013-07-01 14:37:00,100.4,66.9,29.82,NNW,338,1.1,2.7,34,0.00,,,0.00,WUHU216HW,2013-07-01 21:37:00,
2013-07-01 14:43:00,100.4,66.9,29.82,WNW,293,1.3,2.7,34,0.00,,,0.00,WUHU216HW,2013-07-01 21:43:00,
2013-07-01 14:48:00,100.8,67.1,29.82,NW,315,1.1,3.4,34,0.00,,,0.00,WUHU216HW,2013-07-01 21:48:00,
2013-07-01 14:53:00,101.0,67.3,29.82,NW,315,1.1,3.4,34,0.00,,,0.00,WUHU216HW,2013-07-01 21:53:00,
2013-07-01 14:58:00,100.8,66.3,29.82,North,0,0.4,1.8,33,0.00,,,0.00,WUHU216HW,2013-07-01 21:58:00,
2013-07-01 15:03:00,100.8,66.3,29.81,NNW,338,1.3,1.8,33,0.00,,,0.00,WUHU216HW,2013-07-01 22:03:00,
2013-07-01 15:08:00,101.0,65.6,29.81,WNW,293,1.1,2.5,32,0.00,,,0.00,WUHU216HW,2013-07-01 22:08:00,
2013-07-01 15:13:00,101.0,64.8,29.82,NW,315,1.3,2.5,31,0.00,,,0.00,WUHU216HW,2013-07-01 22:13:00,
2013-07-01 15:18:00,101.0,64.8,29.81,NNW,338,1.6,2.2,31,0.00,,,0.00,WUHU216HW,2013-07-01 22:18:00,
2013-07-01 15:23:00,101.2,65.0,29.81,WNW,293,0.4,2.0,31,0.00,,,0.00,WUHU216HW,2013-07-01 22:23:00,
2013-07-01 15:28:00,101.3,65.1,29.81,NW,315,0.7,2.5,31,0.00,,,0.00,WUHU216HW,2013-07-01 22:28:00,
2013-07-01 15:33:00,101.3,64.3,29.82,WNW,293,0.7,2.5,30,0.00,,,0.00,WUHU216HW,2013-07-01 22:33:00,
2013-07-01 15:38:00,101.5,63.3,29.82,NW,315,1.1,2.2,29,0.00,,,0.00,WUHU216HW,2013-07-01 22:38:00,
2013-07-01 15:43:00,101.5,64.5,29.82,SW,225,0.4,2.2,30,0.00,,,0.00,WUHU216HW,2013-07-01 22:43:00,
2013-07-01 15:48:00,101.9,64.7,29.82,NW,315,0.4,1.3,30,0.00,,,0.00,WUHU216HW,2013-07-01 22:48:00,
2013-07-01 15:53:00,101.9,63.5,29.82,ENE,68,0.4,2.7,29,0.00,,,0.00,WUHU216HW,2013-07-01 22:53:00,
2013-07-01 15:58:00,102.1,64.8,29.81,NW,315,1.6,2.7,30,0.00,,,0.00,WUHU216HW,2013-07-01 22:58:00,
2013-07-01 16:03:00,102.1,64.8,29.82,ENE,68,0.7,1.8,30,0.00,,,0.00,WUHU216HW,2013-07-01 23:03:00,
2013-07-01 16:09:00,102.1,64.8,29.81,NNW,338,0.9,1.3,30,0.00,,,0.00,WUHU216HW,2013-07-01 23:09:00,
2013-07-01 16:14:00,102.1,64.8,29.82,NW,315,0.4,1.8,30,0.00,,,0.00,WUHU216HW,2013-07-01 23:14:00,
2013-07-01 16:19:00,102.1,63.7,29.81,NNW,338,1.1,1.1,29,0.00,,,0.00,WUHU216HW,2013-07-01 23:19:00,
2013-07-01 16:24:00,102.2,61.6,29.81,SE,135,0.2,1.1,27,0.00,,,0.00,WUHU216HW,2013-07-01 23:24:00,
2013-07-01 16:29:00,102.4,60.6,29.81,ESE,113,0.0,1.1,26,0.00,,,0.00,WUHU216HW,2013-07-01 23:29:00,
2013-07-01 16:34:00,102.6,61.9,29.81,NW,315,1.3,1.3,27,0.00,,,0.00,WUHU216HW,2013-07-01 23:34:00,
2013-07-01 16:39:00,102.4,60.6,29.81,ENE,68,2.0,2.0,26,0.00,,,0.00,WUHU216HW,2013-07-01 23:39:00,
2013-07-01 16:44:00,102.6,61.9,29.81,NE,45,0.2,2.0,27,0.00,,,0.00,WUHU216HW,2013-07-01 23:44:00,
2013-07-01 16:49:00,102.8,62.0,29.81,West,270,0.7,0.9,27,0.00,,,0.00,WUHU216HW,2013-07-01 23:49:00,
2013-07-01 16:54:00,102.6,60.8,29.81,WNW,293,0.4,0.9,26,0.00,,,0.00,WUHU216HW,2013-07-01 23:54:00,
2013-07-01 16:59:00,102.6,60.8,29.81,SW,225,0.7,0.9,26,0.00,,,0.00,WUHU216HW,2013-07-01 23:59:00,
2013-07-01 17:05:00,102.4,60.6,29.81,SE,135,0.0,0.9,26,0.00,,,0.00,WUHU216HW,2013-07-02 00:05:00,
2013-07-01 17:10:00,102.1,60.3,29.80,SE,135,0.0,0.9,26,0.00,,,0.00,WUHU216HW,2013-07-02 00:10:00,
2013-07-01 17:15:00,102.1,60.3,29.80,East,90,0.2,1.1,26,0.00,,,0.00,WUHU216HW,2013-07-02 00:15:00,
2013-07-01 17:20:00,102.2,60.5,29.80,NNW,338,0.2,1.1,26,0.00,,,0.00,WUHU216HW,2013-07-02 00:20:00,
2013-07-01 17:25:00,102.2,59.3,29.80,North,0,0.9,1.8,25,0.00,,,0.00,WUHU216HW,2013-07-02 00:25:00,
2013-07-01 17:30:00,102.2,60.5,29.80,ESE,113,1.3,1.8,26,0.00,,,0.00,WUHU216HW,2013-07-02 00:30:00,
2013-07-01 17:35:00,102.2,60.5,29.79,West,270,0.9,1.3,26,0.00,,,0.00,WUHU216HW,2013-07-02 00:35:00,
2013-07-01 17:40:00,102.2,59.3,29.79,NE,45,1.1,1.6,25,0.00,,,0.00,WUHU216HW,2013-07-02 00:40:00,
2013-07-01 17:45:00,102.1,59.1,29.79,SSW,203,0.4,1.6,25,0.00,,,0.00,WUHU216HW,2013-07-02 00:45:00,
2013-07-01 17:50:00,102.1,59.1,29.79,NW,315,1.3,1.3,25,0.00,,,0.00,WUHU216HW,2013-07-02 00:50:00,
2013-07-01 17:55:00,101.9,57.9,29.79,NNW,338,0.7,1.3,24,0.00,,,0.00,WUHU216HW,2013-07-02 00:55:00,
2013-07-01 18:00:00,101.9,57.9,29.79,North,0,0.2,1.1,24,0.00,,,0.00,WUHU216HW,2013-07-02 01:00:00,
2013-07-01 18:05:00,101.9,57.9,29.79,NW,315,0.0,1.1,24,0.00,,,0.00,WUHU216HW,2013-07-02 01:05:00,
2013-07-01 18:10:00,101.9,59.1,29.79,NNW,338,0.2,0.9,25,0.00,,,0.00,WUHU216HW,2013-07-02 01:10:00,
2013-07-01 18:15:00,101.7,60.0,29.79,SSE,158,0.4,0.4,26,0.00,,,0.00,WUHU216HW,2013-07-02 01:15:00,
2013-07-01 18:20:00,101.5,59.9,29.79,NNW,338,0.4,0.9,26,0.00,,,0.00,WUHU216HW,2013-07-02 01:20:00,
2013-07-01 18:25:00,101.3,58.6,29.79,NNW,338,0.2,0.9,25,0.00,,,0.00,WUHU216HW,2013-07-02 01:25:00,
2013-07-01 18:30:00,100.8,58.1,29.79,ENE,68,0.4,0.7,25,0.00,,,0.00,WUHU216HW,2013-07-02 01:30:00,
2013-07-01 18:36:00,100.8,59.3,29.79,North,0,1.1,1.1,26,0.00,,,0.00,WUHU216HW,2013-07-02 01:36:00,
2013-07-01 18:41:00,100.6,58.1,29.79,SSE,158,0.4,1.1,25,0.00,,,0.00,WUHU216HW,2013-07-02 01:41:00,
2013-07-01 18:46:00,100.4,57.9,29.79,East,90,0.9,0.9,25,0.00,,,0.00,WUHU216HW,2013-07-02 01:46:00,
2013-07-01 18:51:00,100.3,57.7,29.79,NNW,338,0.4,0.9,25,0.00,,,0.00,WUHU216HW,2013-07-02 01:51:00,
2013-07-01 18:56:00,99.9,58.5,29.79,North,0,0.0,0.4,26,0.00,,,0.00,WUHU216HW,2013-07-02 01:56:00,
2013-07-01 19:01:00,99.5,58.2,29.79,NNE,23,0.0,0.2,26,0.00,,,0.00,WUHU216HW,2013-07-02 02:01:00,
2013-07-01 19:06:00,99.4,59.2,29.79,NE,45,0.2,0.4,27,0.00,,,0.00,WUHU216HW,2013-07-02 02:06:00,
2013-07-01 19:11:00,99.0,60.0,29.79,ENE,68,0.0,0.4,28,0.00,,,0.00,WUHU216HW,2013-07-02 02:11:00,
2013-07-01 19:16:00,98.6,60.9,29.79,ENE,68,1.1,1.1,29,0.00,,,0.00,WUHU216HW,2013-07-02 02:16:00,
2013-07-01 19:21:00,98.3,60.5,29.79,ENE,68,0.4,1.1,29,0.00,,,0.00,WUHU216HW,2013-07-02 02:21:00,
2013-07-01 19:26:00,98.1,61.5,29.79,SE,135,0.4,1.1,30,0.00,,,0.00,WUHU216HW,2013-07-02 02:26:00,
2013-07-01 19:31:00,97.9,61.3,29.79,West,270,0.4,1.1,30,0.00,,,0.00,WUHU216HW,2013-07-02 02:31:00,
2013-07-01 19:33:00,97.9,61.3,29.79,SSW,203,0.9,1.1,30,0.00,,,0.00,WUHU216HW,2013-07-02 02:33:00,
2013-07-01 19:38:00,97.6,61.7,29.79,SE,135,0.2,2.0,31,0.00,,,0.00,WUHU216HW,2013-07-02 02:38:00,
2013-07-01 19:43:00,97.4,61.7,29.79,SE,135,0.4,2.0,31,0.00,,,0.00,WUHU216HW,2013-07-02 02:43:00,
2013-07-01 19:48:00,97.0,62.1,29.79,SSW,203,1.1,1.1,32,0.00,,,0.00,WUHU216HW,2013-07-02 02:48:00,
2013-07-01 19:53:00,96.7,61.8,29.79,SSE,158,0.2,1.6,32,0.00,,,0.00,WUHU216HW,2013-07-02 02:53:00,
2013-07-01 19:58:00,96.3,62.4,29.79,West,270,0.9,1.6,33,0.00,,,0.00,WUHU216HW,2013-07-02 02:58:00,
2013-07-01 20:03:00,95.8,61.9,29.79,NNW,338,0.7,0.9,33,0.00,,,0.00,WUHU216HW,2013-07-02 03:03:00,
2013-07-01 20:08:00,95.4,61.6,29.79,North,0,0.4,1.1,33,0.00,,,0.00,WUHU216HW,2013-07-02 03:08:00,
2013-07-01 20:13:00,95.0,61.3,29.79,ENE,68,0.4,1.6,33,0.00,,,0.00,WUHU216HW,2013-07-02 03:13:00,
2013-07-01 20:18:00,94.5,61.7,29.79,SE,135,0.0,1.8,34,0.00,,,0.00,WUHU216HW,2013-07-02 03:18:00,
2013-07-01 20:23:00,94.1,61.3,29.79,SSE,158,0.4,1.8,34,0.00,,,0.00,WUHU216HW,2013-07-02 03:23:00,
2013-07-01 20:29:00,93.6,61.7,29.80,ESE,113,1.6,1.8,35,0.00,,,0.00,WUHU216HW,2013-07-02 03:29:00,
2013-07-01 20:34:00,93.2,61.3,29.80,East,90,0.2,1.6,35,0.00,,,0.00,WUHU216HW,2013-07-02 03:34:00,
2013-07-01 20:39:00,92.9,61.0,29.80,NW,315,0.4,1.8,35,0.00,,,0.00,WUHU216HW,2013-07-02 03:39:00,
2013-07-01 20:44:00,92.3,61.3,29.80,SE,135,1.3,2.9,36,0.00,,,0.00,WUHU216HW,2013-07-02 03:44:00,
2013-07-01 20:49:00,92.0,61.0,29.80,SSE,158,0.4,2.9,36,0.00,,,0.00,WUHU216HW,2013-07-02 03:49:00,
2013-07-01 20:54:00,91.6,60.8,29.80,SE,135,0.0,1.1,36,0.00,,,0.00,WUHU216HW,2013-07-02 03:54:00,
2013-07-01 20:59:00,91.4,60.6,29.80,SSW,203,0.2,0.9,36,0.00,,,0.00,WUHU216HW,2013-07-02 03:59:00,
2013-07-01 21:01:00,91.4,60.6,29.80,SSE,158,0.2,0.9,36,0.00,,,0.00,WUHU216HW,2013-07-02 04:01:00,
2013-07-01 21:02:00,91.3,60.4,29.80,SSE,158,0.0,0.9,36,0.00,,,0.00,WUHU216HW,2013-07-02 04:02:00,
2013-07-01 21:07:00,90.9,60.8,29.80,South,180,1.8,1.8,37,0.00,,,0.00,WUHU216HW,2013-07-02 04:07:00,
2013-07-01 21:12:00,90.5,60.6,29.80,SSE,158,0.4,1.8,37,0.00,,,0.00,WUHU216HW,2013-07-02 04:12:00,
2013-07-01 21:17:00,90.2,60.2,29.80,SE,135,1.1,1.8,37,0.00,,,0.00,WUHU216HW,2013-07-02 04:17:00,
2013-07-01 21:23:00,90.0,60.8,29.80,SSE,158,0.9,1.3,38,0.00,,,0.00,WUHU216HW,2013-07-02 04:23:00,
2013-07-01 21:28:00,89.6,60.5,29.80,South,180,0.0,1.1,38,0.00,,,0.00,WUHU216HW,2013-07-02 04:28:00,
2013-07-01 21:33:00,89.3,60.2,29.80,East,90,0.0,0.4,38,0.00,,,0.00,WUHU216HW,2013-07-02 04:33:00,
2013-07-01 21:38:00,88.9,60.0,29.81,East,90,0.0,0.2,38,0.00,,,0.00,WUHU216HW,2013-07-02 04:38:00,
2013-07-01 21:43:00,88.6,60.4,29.81,East,90,0.0,0.0,39,0.00,,,0.00,WUHU216HW,2013-07-02 04:43:00,
2013-07-01 21:48:00,88.2,60.1,29.82,East,90,0.0,0.0,39,0.00,,,0.00,WUHU216HW,2013-07-02 04:48:00,
2013-07-01 21:53:00,87.8,60.7,29.81,East,90,0.0,0.0,40,0.00,,,0.00,WUHU216HW,2013-07-02 04:53:00,
2013-07-01 21:58:00,87.5,60.3,29.82,East,90,0.0,0.2,40,0.00,,,0.00,WUHU216HW,2013-07-02 04:58:00,
2013-07-01 22:03:00,87.1,60.7,29.82,East,90,0.0,0.4,41,0.00,,,0.00,WUHU216HW,2013-07-02 05:03:00,
2013-07-01 22:08:00,86.9,61.1,29.82,East,90,0.0,0.4,42,0.00,,,0.00,WUHU216HW,2013-07-02 05:08:00,
2013-07-01 22:13:00,86.8,60.9,29.82,East,90,0.9,0.9,42,0.00,,,0.00,WUHU216HW,2013-07-02 05:13:00,
2013-07-01 22:18:00,86.6,60.8,29.82,East,90,0.0,0.9,42,0.00,,,0.00,WUHU216HW,2013-07-02 05:18:00,
2013-07-01 22:23:00,86.2,60.5,29.82,East,90,0.0,0.0,42,0.00,,,0.00,WUHU216HW,2013-07-02 05:23:00,
2013-07-01 22:29:00,86.0,60.9,29.82,East,90,0.0,0.0,43,0.00,,,0.00,WUHU216HW,2013-07-02 05:29:00,
2013-07-01 22:34:00,85.7,59.9,29.82,East,90,0.0,0.0,42,0.00,,,0.00,WUHU216HW,2013-07-02 05:34:00,
2013-07-01 22:39:00,85.5,60.5,29.82,East,90,0.0,0.0,43,0.00,,,0.00,WUHU216HW,2013-07-02 05:39:00,
2013-07-01 22:44:00,85.3,60.3,29.82,East,90,0.0,0.0,43,0.00,,,0.00,WUHU216HW,2013-07-02 05:44:00,
2013-07-01 22:49:00,85.1,60.1,29.82,East,90,0.0,0.0,43,0.00,,,0.00,WUHU216HW,2013-07-02 05:49:00,
2013-07-01 22:54:00,84.8,59.8,29.82,East,90,0.4,0.4,43,0.00,,,0.00,WUHU216HW,2013-07-02 05:54:00,
2013-07-01 22:59:00,84.6,59.7,29.82,East,90,0.0,0.7,43,0.00,,,0.00,WUHU216HW,2013-07-02 05:59:00,
2013-07-01 23:04:00,84.6,60.3,29.82,East,90,0.0,0.7,44,0.00,,,0.00,WUHU216HW,2013-07-02 06:04:00,
2013-07-01 23:09:00,84.4,60.1,29.82,East,90,0.0,0.0,44,0.00,,,0.00,WUHU216HW,2013-07-02 06:09:00,
2013-07-01 23:14:00,84.2,59.9,29.82,East,90,0.0,0.0,44,0.00,,,0.00,WUHU216HW,2013-07-02 06:14:00,
2013-07-01 23:19:00,84.1,59.8,29.82,East,90,0.0,0.2,44,0.00,,,0.00,WUHU216HW,2013-07-02 06:19:00,
2013-07-01 23:24:00,83.9,59.6,29.82,East,90,0.0,0.2,44,0.00,,,0.00,WUHU216HW,2013-07-02 06:24:00,
2013-07-01 23:29:00,83.9,60.2,29.82,East,90,0.0,0.0,45,0.00,,,0.00,WUHU216HW,2013-07-02 06:29:00,
2013-07-01 23:34:00,83.7,60.0,29.81,East,90,0.0,0.0,45,0.00,,,0.00,WUHU216HW,2013-07-02 06:34:00,
2013-07-01 23:39:00,83.5,60.5,29.82,East,90,0.0,0.0,46,0.00,,,0.00,WUHU216HW,2013-07-02 06:39:00,
2013-07-01 23:44:00,83.2,60.1,29.82,East,90,0.0,0.0,46,0.00,,,0.00,WUHU216HW,2013-07-02 06:44:00,
2013-07-01 23:49:00,83.2,60.8,29.83,East,90,0.0,0.0,47,0.00,,,0.00,WUHU216HW,2013-07-02 06:49:00,
2013-07-01 23:55:00,83.0,60.6,29.83,East,90,0.0,0.0,47,0.00,,,0.00,WUHU216HW,2013-07-02 06:55:00,